This demonstration page uses our WeatherBlox Daily Observations layout. Learn more.

Left ArrowRight Arrow

34.16533, -84.80231

Hourly Observations for April 9, 2020

Temp ( °F °C ) Dew Point ( °F °C ) Humidity (%) Winds ( mph kmh ) Pressure ( in mb ) Visibility ( mi km ) Precip ( " mm )
12:53 am 00:53 Clear 70 21.1 66 18.9 87 87 SSW 3 6 29.72 1006 9 14 0.00 0.00
1:53 am 01:53 Clear 69 20.6 65 18.3 87 87 Calm 29.71 1006 8 13 0.00 0.00
2:19 am 02:19 Mostly Cloudy 69 20.6 65 18.3 87 87 Calm 29.74 1007 8 13 0.00 0.00
2:26 am 02:26 Mostly Cloudy 69 20.6 65 18.3 87 87 Calm 29.74 1007 8 13 0.00 0.00
2:41 am 02:41 Partly Cloudy 68 20 65 18.3 90 90 Calm 29.73 1007 7 11 0.00 0.00
2:53 am 02:53 Mostly Clear with Mist and Fog 67 19.4 64 17.8 91 91 Calm 29.70 1006 6 10 0.00 0.00
3:53 am 03:53 Mostly Cloudy 68 20 65 18.3 90 90 Calm 29.70 1006 7 11 0.00 0.00
3:57 am 03:57 Mostly Cloudy with Nearby Thunderstorms 68 20 65 18.3 90 90 Calm 29.71 1006 7 11 0.00 0.00
4:09 am 04:09 Cloudy with Strong Thunderstorms 65 18.3 60 15.6 84 84 N 16 26 29.77 1008 2 3 0.19 4.83
4:13 am 04:13 Cloudy with Strong Thunderstorms 62 16.7 59 15 90 90 NNE 10 17 29.76 1008 1 2 0.35 8.89
4:20 am 04:20 Cloudy with Thunderstorms 62 16.7 59 15 90 90 NNE 9 15 29.75 1007 3 4 0.37 9.40
4:27 am 04:27 Cloudy with Thunderstorms 62 16.7 59 15 90 90 VRB 3 6 29.76 1008 7 11 0.38 9.65
4:38 am 04:38 Cloudy with Nearby Thunderstorms 62 16.7 59 15 90 90 Calm 29.77 1008 7 11 0.39 9.91
4:48 am 04:48 Cloudy with Rain 63 17 59 15 88 88 Calm 29.78 1008 4 6 0.42 10.67
4:53 am 04:53 Cloudy with Rain 62 16.7 59 15 90 90 Calm 29.76 1008 4 6 0.43 10.92
5:53 am 05:53 Cloudy 61 16.1 59 15 93 93 S 3 6 29.74 1007 10 16 0.04 1.02
6:53 am 06:53 Clear 62 16.7 59 15 90 90 Calm 29.69 1005 10 16 0.00 0.00
7:53 am 07:53 Sunny 62 16.7 59 15 90 90 N 6 9 29.73 1007 9 14 0.00 0.00
8:12 am 08:12 Mostly Sunny 62 16.7 60 15.6 93 93 Calm 29.78 1009 9 14 0.00 0.00
8:46 am 08:46 Mostly Cloudy 63 17.2 61 16.1 93 93 Calm 29.80 1009 10 16 0.00 0.00
8:53 am 08:53 Mostly Cloudy 63 17.2 61 16.1 93 93 Calm 29.78 1009 10 16 0.00 0.00
9:20 am 09:20 Mostly Cloudy 64 17.8 61 16.1 90 90 N 3 6 29.81 1009 10 16 0.00 0.00
9:53 am 09:53 Mostly Cloudy 66 18.9 62 16.7 87 87 Calm 29.78 1009 10 16 0.00 0.00
9:56 am 09:56 Mostly Cloudy 66 18.9 61 16.1 84 84 Calm 29.80 1009 10 16 0.00 0.00
10:13 am 10:13 Partly Cloudy 68 20 62 16.7 81 81 VRB 3 6 29.79 1009 10 16 0.00 0.00
10:53 am 10:53 Mostly Sunny 70 21.1 61 16.1 73 73 VRB 5 7 29.79 1009 10 16 0.00 0.00
11:19 am 11:19 Cloudy 69 20.6 61 16.1 76 76 VRB 3 6 29.82 1010 10 16 0.00 0.00
11:49 am 11:49 Mostly Cloudy 72 22 57 14 61 61 NNW 8 13 29.82 1010 10 16 0.00 0.00
11:53 am 11:53 Partly Cloudy 72 22.2 58 14.4 61 61 NNW 9 15 29.80 1009 10 16 0.00 0.00
12:53 pm 12:53 Mostly Cloudy 74 23.3 57 13.9 56 56 NNW 8 13 29.80 1009 10 16 0.00 0.00
1:53 pm 13:53 Mostly Sunny 74 23.3 55 12.8 52 52 Calm 29.79 1009 10 16 0.00 0.00
2:53 pm 14:53 Sunny 76 24.4 52 11.1 43 43 VRB 6 9 29.78 1008 10 16 0.00 0.00
3:53 pm 15:53 Sunny 78 25.6 45 7.2 31 31 VRB 3 6 29.76 1008 10 16 0.00 0.00
4:53 pm 16:53 Sunny 77 25 43 6.1 30 30 VRB 5 7 29.75 1008 10 16 0.00 0.00
5:53 pm 17:53 Sunny 74 23.3 44 6.7 34 34 Calm 29.74 1007 10 16 0.00 0.00
6:53 pm 18:53 Sunny 72 22.2 43 6.1 35 35 Calm 29.75 1008 10 16 0.00 0.00
7:53 pm 19:53 Sunny 68 20 42 5.6 39 39 Calm 29.76 1008 10 16 0.00 0.00
8:53 pm 20:53 Clear 65 18.3 44 6.7 47 47 Calm 29.77 1008 10 16 0.00 0.00
9:53 pm 21:53 Clear 61 16.1 44 6.7 54 54 Calm 29.80 1009 10 16 0.00 0.00
10:53 pm 22:53 Clear 59 15 45 7.2 60 60 Calm 29.81 1009 10 16 0.00 0.00
11:53 pm 23:53 Clear 60 15.6 43 6.1 53 53 Calm 29.81 1010 10 16 0.00 0.00

Powered by AerisWeather